Regional Weather Roundup
Issued by NWS

Home | Current Version | Previous Version | Graphics & Text | Print | Product List | Glossary On
Versions: 1 2 3 4 5 6 7 8 9 10 11 12 13 14 15 16 17 18 19 20 21 22 23 24 25 26 27 28 29 30 31 32 33 34 35 36 37 38 39 40 41 42 43 44 45 46 47 48 49 50
000
ASUS43 KLMK 281302
RWRKY
KENTUCKY REGIONAL WEATHER ROUNDUP
NATIONAL WEATHER SERVICE LOUISVILLE KY
900 AM EDT SUN MAY 28 2017

NOTE "FAIR" INDICATES FEW OR NO CLOUDS BELOW 12,000 FEET
WITH NO SIGNIFICANT WEATHER AND/OR OBSTRUCTIONS TO VISIBILITY.

KYZ001>023-026-027-061>063-070>075-281400-
WESTERN AND SOUTH CENTRAL KENTUCKY

CITY           SKY/WX    TMP DP  RH WIND       PRES   REMARKS
PADUCAH        PTSUNNY   65  61  87 SW5       29.85R
HENDERSON      CLOUDY    65  62  90 SW13      29.82F
OWENSBORO      CLOUDY    66  62  87 SW22      29.83S
HOPKINSVILLE   CLOUDY    65  64  96 S10       29.85F
BOWLING GREEN  PTSUNNY   66  64  93 S5        29.88R
GLASGOW        NOT AVBL
$$

KYZ024-025-028>034-038-045-046-053-281400-
NORTH CENTRAL KENTUCKY

CITY           SKY/WX    TMP DP  RH WIND       PRES   REMARKS
LOUISVILLE/SDF CLOUDY    69  62  78 S10       29.82R
LOUISVILLE/LOU CLOUDY    68  64  87 S7        29.83R
FORT KNOX      NOT AVBL
$$

KYZ035>037-039>044-047>052-055>060-089>105-281400-
NORTHEAST KENTUCKY

CITY           SKY/WX    TMP DP  RH WIND       PRES   REMARKS
LEXINGTON      PTSUNNY   66  61  84 SW14      29.86R
COVINGTON      CLOUDY    65  62  90 SW12G21   29.80R
FRANKFORT      CLOUDY    66  61  84 SW14G24   29.84R
$$

KYZ054-064>069-076>088-106>120-281400-
SOUTHEAST KENTUCKY

CITY           SKY/WX    TMP DP  RH WIND       PRES   REMARKS
JACKSON        CLOUDY    65  62  90 CALM      29.89R
LONDON         PTSUNNY   64  60  87 SW3       29.90R
SOMERSET       MOSUNNY   63  63 100 SW5       29.91R
MIDDLESBORO    CLOUDY    64  62  92 S3        29.93R
MONTICELLO     LGT RAIN  65  62  90 W10       29.92R
$$





USA.gov is the U.S. government's official web portal to all federal, state and local government web resources and services.